Regional Weather Roundup
Issued by NWS

Home | Current Version | Previous Version | Text Only | Print | Product List | Glossary On
Versions: 1 2 3 4 5 6 7 8 9 10 11 12 13 14 15 16 17 18 19 20 21 22 23 24 25 26 27 28 29 30 31 32 33 34 35 36 37 38 39 40 41 42 43 44 45 46 47 48 49 50
000
ASUS43 KMKX 251359
RWRWI

WISCONSIN REGIONAL WEATHER ROUNDUP
NATIONAL WEATHER SERVICE MILWAUKEE/SULLIVAN WI
900 AM CDT FRI JUL 25 2014

NOTE: "FAIR" INDICATES FEW OR NO CLOUDS BELOW 12,000 FEET WITH NO
SIGNIFICANT WEATHER AND/OR OBSTRUCTIONS TO VISIBILITY.

WIZ001-002-006>008-014>016-023>028-251500-
NORTHWEST WISCONSIN

CITY           SKY/WX    TMP DP  RH WIND       PRES   REMARKS
SUPERIOR ARPT  CLOUDY    60  57  90 CALM      29.82R
ASHLAND        CLOUDY    68  62  81 VRB3      29.83F
HAYWARD        CLOUDY    64  60  87 SE8       29.83F
SIREN          LGT RAIN  64  62  94 SW10      29.81F
RICE LAKE      DRIZZLE   65  59  82 S6        29.89R
LADYSMITH      CLOUDY    65  59  81 S8        29.89R
EAU CLAIRE     NOT AVBL
MENOMONIE      LGT RAIN  64  62  93 SE5       29.88S
NEW RICHMOND   CLOUDY    64  64  97 CALM      29.88R
OSCEOLA        CLOUDY    66  65  97 CALM      29.89R
$$

WIZ003>005-009-010-017-018-251500-
NORTH CENTRAL WISCONSIN

CITY           SKY/WX    TMP DP  RH WIND       PRES   REMARKS
WOODRUFF       CLOUDY    63  59  89 S7        29.91F
RHINELANDER    CLOUDY    62  59  90 S3        29.93F
EAGLE RIVER    LGT RAIN  62  60  95 S5        29.93F
LAND O LAKES   DRIZZLE   64  60  86 S5        29.94F
PHILLIPS       CLOUDY    64  59  83 S8        29.88F
TOMAHAWK       CLOUDY    61  59  93 CALM      29.93F
MEDFORD        CLOUDY    62  58  88 SE7       29.90F
MERRILL        CLOUDY    62  60  93 S5        29.93F
$$

WIZ029-030-035-036-043>047-251500-
CENTRAL WISCONSIN

CITY           SKY/WX    TMP DP  RH WIND       PRES   REMARKS
WAUSAU         CLOUDY    63  59  87 SE9       29.91F
MOSINEE        PTSUNNY   63  61  94 S5        29.93F
MARSHFIELD     CLOUDY    65  58  78 SE10      29.89F
STEVENS POINT  CLOUDY    61  56  82 S9G16     29.94F
WAUPACA        CLOUDY    64  59  85 S7        29.97F
WAUTOMA        NOT AVBL
WISC RAPIDS    CLOUDY    65  58  78 SE10      29.91F
CAMP DOUGLAS   NOT AVBL
$$

WIZ011>013-019>022-031-037>040-048>050-251500-
NORTHEAST WISCONSIN

CITY           SKY/WX    TMP DP  RH WIND       PRES   REMARKS
ANTIGO         LGT RAIN  61  59  92 S8        29.95F
STURGEON BAY   CLOUDY    66  54  63 SW10      29.97F
GREEN BAY      CLOUDY    66  57  72 SW10      29.98F
MANITOWOC      NOT AVBL
APPLETON       PTSUNNY   63  55  77 SW8       29.99F
CLINTONVILLE   RAIN      63  57  82 S6        29.98R
OSHKOSH        CLOUDY    63  55  75 SW10      29.97F
$$

WIZ032>034-041-042-053>061-251500-
SOUTHWEST WISCONSIN

CITY           SKY/WX    TMP DP  RH WIND       PRES   REMARKS
LA CROSSE      CLOUDY    66  61  84 S7        29.89R
SPARTA         CLOUDY    62  58  86 SW7G16    29.86F
VIROQUA        PTSUNNY   62  61  97 S14       29.90F
BOSCOBEL       CLOUDY    66  57  72 S14G26    29.88F
PRAIRIE DU CHI LGT RAIN  63  57  80 SE9G16    29.93F
PLATTEVILLE    FAIR      64  59  86 S15       29.99F
$$

WIZ056-057-062-063-064-067-068-251500-
SOUTH CENTRAL WISCONSIN

CITY           SKY/WX    TMP DP  RH WIND       PRES   REMARKS
BARABOO/DELLS  CLOUDY    64  54  71 S10G17    29.95F
LONE ROCK      NOT AVBL
WATERTOWN      CLOUDY    64  55  72 S7        30.01S
MADISON        CLOUDY    66  56  70 S8        29.97F
MIDDLETON      CLOUDY    65  55  69 S12       29.99F
MONROE         CLOUDY    61  59  94 S5        30.00F
JANESVILLE     NOT AVBL
$$

WIZ051-052-058>065-066-070>072-251500-
SOUTHEAST WISCONSIN

CITY           SKY/WX    TMP DP  RH WIND       PRES   REMARKS
MILWAUKEE      CLOUDY    64  51  62 SW10      30.02F
WAUKESHA       MOSUNNY   63  52  67 S3        30.03F
MILWAUKEE/TIMM MOSUNNY   64  50  59 SW8       30.03F
RACINE         CLOUDY    64  52  64 SW8       30.04F
BURLINGTON     CLOUDY    61  53  76 S6        30.02F
KENOSHA        CLOUDY    64  53  67 SW10      30.02F
FOND DU LAC    CLOUDY    65  53  65 S13       29.99F
SHEBOYGAN      CLOUDY    66  54  65 SW12      30.01F
WEST BEND      CLOUDY    63  50  63 SW6       30.03S
JUNEAU         CLOUDY    64  51  64 S8        30.04R
$$

LSZ147-162-251500-
LAKE SUPERIOR

STATION/POSITION TIME  TEMP    WIND        PRES    WAVE
                       AIR SEA DIR/SP/G            HT/PER
                 (UTC) (F)     (DEG/KT/KT) (MB)    (FT/S)
$$

LMZ867-665-643>646-251500-
LAKE MICHIGAN

STATION/POSITION TIME  TEMP    WIND        PRES    WAVE
                       AIR SEA DIR/SP/G            HT/PER
                 (UTC) (F)     (DEG/KT/KT) (MB)    (FT/S)
$$

TC  - TEMPERATURE IN CELSIUS
VSB - VISIBILITY IN STATUTE MILES
WCI - WIND CHILL INDEX
HX  - HEAT INDEX



USA.gov is the U.S. government's official web portal to all federal, state and local government web resources and services.